Home > Weather > Springe > Past weeks

Flag for Germany Past Weather in Springe, Lower Saxony, Germany — Yesterday and Last 2 Weeks

Now
54 °F

Partly sunny.


Feels Like: 52 °F
Forecast: 49 / 67 °F
Wind: 7 mph from Southwest

Location: Wunstorf Airport

Current Time: May 25, 2016 at 1:12:37 PM

Latest Report: May 25, 2016 at 12:20 PM


Visibility: N/A

Pressure: 29.98 "Hg

Humidity: 72%

Dew Point: 45 °F

Location of SpringeLocation

Past Weather in Springe — Graph

°F

Springe Temperature Yesterday

Maximum temperature yesterday: 57 °F (at 3:20 PM)
Minimum temperature yesterday: 50 °F (at 8:20 AM)
Average temperature yesterday: 53 °F

High & Low Weather Summary for the Past Weeks

 TemperatureHumidityPressure
High82 °F (May 22, 2:20 PM)100% (May 23, 1:20 AM)30.07 "Hg (May 23, 1:20 AM)
Low41 °F (May 15, 3:20 AM)25% (May 13, 1:20 PM)29.53 "Hg (May 12, 5:20 PM)
Average58 °F65%29.86 "Hg
* Reported May 10 11:20 AM — May 25 11:20 AM, Springe, Weather by CustomWeather, © 2016

Note: Actual official high and low records may vary slightly from our data, if they occured in-between our weather recording intervals... More about our weather records

Advertising

Springe Weather History for the Previous 24 Hours

Scroll right to see more
 ConditionsComfort  
Time TempWeatherWind HumidityBarometerVisibility
11:20 AM
Wed, May 25
54 °FPartly sunny.6 mph72%29.98 "HgN/A
10:20 AM52 °FPartly sunny.5 mph77%29.98 "HgN/A
9:20 AM52 °FPartly sunny.7 mph77%29.98 "HgN/A
8:20 AM52 °FPartly sunny.6 mph77%29.98 "HgN/A
7:20 AM52 °FPartly sunny.5 mph77%29.98 "HgN/A
6:20 AM52 °FPartly sunny.7 mph77%29.95 "HgN/A
5:20 AM52 °FPartly cloudy.3 mph82%29.95 "HgN/A
4:20 AM52 °FCool.6 mph82%29.95 "Hg3 mi
3:20 AM52 °FCool.6 mph88%29.95 "Hg3 mi
2:20 AM52 °FCool.5 mph77%29.98 "Hg4 mi
1:20 AM54 °FCool.7 mph77%29.95 "Hg4 mi
12:20 AM54 °FCool.9 mph77%29.98 "Hg4 mi
11:20 PM
Tue, May 24
54 °FCool.8 mph77%29.95 "Hg3 mi
10:20 PM54 °FCool.9 mph82%29.95 "Hg3 mi
9:20 PM54 °FCool.9 mph82%29.95 "Hg3 mi
8:20 PM55 °FCool.13 mph77%29.95 "Hg3 mi
7:20 PM55 °FBroken clouds.14 mph77%29.95 "HgN/A
6:20 PM55 °FPartly sunny.13 mph77%29.95 "HgN/A
5:20 PM57 °FPartly sunny.14 mph67%29.92 "HgN/A
4:20 PM57 °FPartly sunny.14 mph67%29.92 "HgN/A
3:20 PM57 °FPartly sunny.12 mph67%29.92 "HgN/A
2:20 PM55 °FPartly sunny.14 mph77%29.95 "HgN/A
1:49 PM54 °FBroken clouds.13 mph82%29.92 "HgN/A
1:20 PM54 °FPartly sunny.14 mph82%29.95 "HgN/A
Weather by CustomWeather, © 2016

See weather overviewHow to use our weather pages